Regional Weather Roundup
Issued by NWS

Home | Current Version | Previous Version | Graphics & Text | Print | Product List | Glossary Off
Versions: 1 2 3 4 5 6 7 8 9 10 11 12 13 14 15 16 17 18 19 20 21 22 23 24 25 26 27 28 29 30 31 32 33 34 35 36 37 38 39 40 41 42 43 44 45 46 47 48 49 50

000
ASUS43 KMKX 202120
RWRWI

WISCONSIN REGIONAL WEATHER ROUNDUP
NATIONAL WEATHER SERVICE MILWAUKEE/SULLIVAN WI
300 PM CST TUE FEB 20 2018

NOTE: "FAIR" INDICATES FEW OR NO CLOUDS BELOW 12,000 FEET WITH NO
SIGNIFICANT WEATHER AND/OR OBSTRUCTIONS TO VISIBILITY.

WIZ001-002-006>008-014>016-023>028-202200-
NORTHWEST WISCONSIN

CITY           SKY/WX    TMP DP  RH WIND       PRES   REMARKS
SUPERIOR ARPT  CLOUDY    17  10  75 SW8       29.97R WCI   7
ASHLAND        CLOUDY    20  17  88 W8        29.92R WCI  10
HAYWARD        CLOUDY    20  15  81 VRB3      29.90R
SIREN          CLOUDY    18  11  76 W6        29.97R WCI   9
CUMBERLAND     CLOUDY    19  14  79 W9        29.93R WCI   9
RICE LAKE      CLOUDY    21  17  86 W10       29.95R WCI  10
CHETEK         CLOUDY    21  17  83 W7        29.94R WCI  13
LADYSMITH      CLOUDY    24  20  85 W10       29.91R WCI  14
EAU CLAIRE     CLOUDY    23  18  81 W12       29.94R WCI  12
MENOMONIE      CLOUDY    23  17  78 W13       29.98R WCI  11
NEW RICHMOND   FLURRIES  20  14  76 W12       29.98R WCI   8
OSCEOLA        CLOUDY    20  13  72 NW10      30.01R WCI   9
$$

WIZ003>005-009-010-017-018-202200-
NORTH CENTRAL WISCONSIN

CITY           SKY/WX    TMP DP  RH WIND       PRES   REMARKS
MANITOWISH WTR CLOUDY    23  23 100 NW9       29.82R WCI  13
ARBOR VITAE    CLOUDY    25  23  91 NW7       29.81R WCI  17
WOODRUFF       CLOUDY    25  23  91 NW7       29.81R WCI  17
RHINELANDER    CLOUDY    27  25  92 W16       29.80R WCI  15
EAGLE RIVER    CLOUDY    26  25  96 NW10G16   29.79R WCI  16
LAND O LAKES   CLOUDY    26  24  93 W9        29.81R WCI  16
PHILLIPS       CLOUDY    22  21  96 W6        29.86R WCI  15
TOMAHAWK       CLOUDY    25  22  89 W12G17    29.84R WCI  14
MEDFORD        CLOUDY    22  20  91 W13       29.85R WCI  10
MERRILL        CLOUDY    27  24  89 W14       29.85R WCI  16
$$

WIZ029-030-035-036-043>047-202200-
CENTRAL WISCONSIN

CITY           SKY/WX    TMP DP  RH WIND       PRES   REMARKS
WAUSAU         CLOUDY    27  24  89 W16       29.83R WCI  15
MOSINEE        CLOUDY    28  27  93 W13G18    29.85R WCI  18
MARSHFIELD     CLOUDY    25  22  88 W14       29.87R WCI  13
STEVENS POINT  CLOUDY    29  29  99 W8        29.86R WCI  21
WAUPACA        CLOUDY    36  32  87 W10       29.86S WCI  28
WAUTOMA        CLOUDY    34  32  92 W10       29.87S WCI  26
WISC RAPIDS    CLOUDY    30  26  85 W13G20    29.89R WCI  20
CAMP DOUGLAS   CLOUDY    30  28  93 W15       29.91R WCI  19
$$

WIZ011>013-019>022-031-037>040-048>050-202200-
NORTHEAST WISCONSIN

CITY           SKY/WX    TMP DP  RH WIND       PRES   REMARKS
ANTIGO         CLOUDY    29  28  95 W9        29.80R WCI  21
SHAWANO        CLOUDY    35  33  92 CALM      29.82R
OCONTO         CLOUDY    32  32  99 W3        29.83S
STURGEON BAY   CLOUDY    34  32  92 W7        29.82S FOG     WCI  28
GREEN BAY      CLOUDY    35  31  85 W10       29.84R WCI  27
MANITOWOC      LGT RAIN  37  34  89 W12       29.84R WCI  29
APPLETON       CLOUDY    34  34 100 W12G18    29.85R WCI  25
CLINTONVILLE   CLOUDY    34  32  90 W8        29.84S WCI  27
OSHKOSH        CLOUDY    35  32  88 W10G17    29.85S WCI  27
$$

WIZ032>034-041-042-053>061-202200-
SOUTHWEST WISCONSIN

CITY           SKY/WX    TMP DP  RH WIND       PRES   REMARKS
LA CROSSE      CLOUDY    27  22  81 W15       29.97R WCI  15
SPARTA         CLOUDY    25  23  92 W10       29.95R WCI  15
VIROQUA        CLOUDY    26  26 100 NW8       29.92R WCI  18
BOSCOBEL       CLOUDY    32  25  75 W13G22    29.95R WCI  22
PRAIRIE DU CHI CLOUDY    29  23  76 W15       29.98R WCI  18
PLATTEVILLE    FAIR      32  31  96 W15       29.93R WCI  22
$$

WIZ056-057-062-063-064-067-068-202200-
SOUTH CENTRAL WISCONSIN

CITY           SKY/WX    TMP DP  RH WIND       PRES   REMARKS
REEDSBURG      CLOUDY    33  31  94 W14       29.90R WCI  23
BARABOO/DELLS  CLOUDY    34  33  96 W6        29.87F WCI  28
LONE ROCK      CLOUDY    34  30  85 W13       29.93R WCI  25
MINERAL POINT  FAIR      32  32 100 W12       29.89R WCI  23
MADISON        CLOUDY    35  33  92 W7        29.88F WCI  29
MIDDLETON      CLOUDY    36  35  97 W12       29.88S WCI  27
WATERTOWN      CLOUDY    36  36 100 NW8       29.85R WCI  30
MONROE         CLOUDY    32  32 100 NW14G23   29.88R WCI  22
JANESVILLE     LGT RAIN  37  37 100 W8        29.87R WCI  31
$$

WIZ051-052-058>065-066-070>072-202200-
SOUTHEAST WISCONSIN

CITY           SKY/WX    TMP DP  RH WIND       PRES   REMARKS
MILWAUKEE      LGT RAIN  47  46  97 W10       29.82R
WAUKESHA       CLOUDY    39  39 100 W12G18    29.86R WCI  32
MILWAUKEE/TIMM RAIN      43  39  87 W6        29.82S
RACINE         LGT RAIN  48  47  96 W7        29.85R
BURLINGTON     LGT SNOW  40  39  95 W9        29.86R WCI  34
KENOSHA        RAIN      49  47  93 W6        29.85R FOG
FOND DU LAC    CLOUDY    36  32  85 W14       29.86R WCI  27
SHEBOYGAN      LGT RAIN  37  36  96 W13       29.83R WCI  29
WEST BEND      LGT RAIN  37  37 100 W13G20    29.84R WCI  29
JUNEAU         CLOUDY    35  35  99 W3        29.87S
$$

LSZ147-162-202200-
LAKE SUPERIOR

STATION/POSITION TIME  TEMP    WIND        PRES    WAVE
                       AIR SEA DIR/SP/G            HT/PER
                 (UTC) (F)     (DEG/KT/KT) (MB)    (FT/S)
DEVILS ISLAND    2000   17     310/  8/ 10 1013.8R
SAXON HARBOR     2030   20     320/  9/ 12 1012.5R
$$

LMZ867-665-643>646-202200-
LAKE MICHIGAN

STATION/POSITION TIME  TEMP    WIND        PRES    WAVE
                       AIR SEA DIR/SP/G            HT/PER
                 (UTC) (F)     (DEG/KT/KT) (MB)    (FT/S)
NORTHPORT PIER   2040   32                 1009.5R
KEWAUNEE LAKESHO 2054   37     270/  8/ 12 1009.0S
SHEBOYGAN LAKESH 2100   39     280/ 18/ 20 1010.3R
PORT WASHINGTON  2040   43     280/  6/ 11 1010.2F
MILWAUKEE LAKESH 2100   45     290/  6/  8   N/A
KENOSHA   LAKESH 2000   53     240/  5/  9 1010.2
$$

TC  - TEMPERATURE IN CELSIUS
VSB - VISIBILITY IN STATUTE MILES
WCI - WIND CHILL INDEX
HX  - HEAT INDEX





USA.gov is the U.S. government's official web portal to all federal, state and local government web resources and services.